Regional Weather Roundup
Issued by NWS Charleston, WV

Home | Current Version | Previous Version | Text Only | Print | Product List | Glossary Off
Versions: 1 2 3 4 5 6 7 8 9 10 11 12 13 14 15 16 17 18 19 20 21 22 23 24 25 26 27

000
ASUS41 KRLX 250210
RWRRLX
West Virginia Regional Weather Roundup
National Weather Service Charleston WV
1000 PM EDT SUN JUL 24 2016

Note: "fair" indicates few or no clouds below 12,000 feet with no
significant weather and/or obstructions to visibility.

WVZ003-250300-
Northern Panhandle of West Virginia

CITY           SKY/WX    TMP DP  RH WIND       PRES   REMARKS
WHEELING         N/A     74  68  81 SE6       30.02S
$$

WVZ009-250300-
Northwest West Virginia

CITY           SKY/WX    TMP DP  RH WIND       PRES   REMARKS
PARKERSBURG      N/A     82  73  74 CALM      30.01S
$$

WVZ006-250300-
Western West Virginia

CITY           SKY/WX    TMP DP  RH WIND       PRES   REMARKS
HUNTINGTON       N/A     82  75  79 CALM      29.99S
$$

WVZ015-250300-
West Central West Virginia

CITY           SKY/WX    TMP DP  RH WIND       PRES   REMARKS
CHARLESTON       N/A     81  75  82 CALM      30.01R
$$

WVZ022-031-250300-
North Central West Virginia

CITY           SKY/WX    TMP DP  RH WIND       PRES   REMARKS
CLARKSBURG       N/A     78  71  79 N5        30.03R
MORGANTOWN       N/A     73  71  93 CALM      30.04S
$$

WVZ025-035-042-045-250300-
Southern West Virginia

CITY           SKY/WX    TMP DP  RH WIND       PRES   REMARKS
BECKLEY          N/A     76  68  76 SE3       30.13R
LOGAN            N/A     81  75  83 CALM      30.05R
BLUEFIELD        N/A     76  64  66 CALM      30.17S
LEWISBURG        N/A     74  67  78 CALM      30.13R
$$

WVZ047-250300-
Northern Mountains of West Virginia

CITY           SKY/WX    TMP DP  RH WIND       PRES   REMARKS
ELKINS           N/A     75  69  81 CALM      30.09R
$$

WVZ052-250300-
Eastern Panhandle of West Virginia

CITY           SKY/WX    TMP DP  RH WIND       PRES   REMARKS
MARTINSBURG      N/A     79  71  76 SW5       29.99R
PETERSBURG       N/A     79  73  81 CALM      30.01R
$$




USA.gov is the U.S. government's official web portal to all federal, state and local government web resources and services.